Погода в Старом Акшино

Россия / Республика Мордовия     54°17′26″N   44°42′55″E
темп.,
°C
ветер,
м/с
пор.,
м/с
влажн.,
%
обл.,
%
осадки,
мм/ч
давл.,
гПа
погр.,
м
3 марта, ср
ср300:00−4зсз489697 0.0 1005177
03:00−6зсз499784 0.1 1005173
06:00−4сз7109097 0.1 1006716
09:00−6сз7108998 0.1 1008689
12:00−5сз71089100 0.1 1009676
15:00−4сз71087100 0.1 1011774
18:00−6зсз51189100 0.1 1011529
21:00−8з5119262 0.1 1011248
4 марта, чт
чт400:00−5зюз6149494 0.1 1009459
03:00−3зюз7139497 0.3 1007726
06:00−3зюз81494100 0.4 1004813
09:00−3зюз81493100 0.6 1002650
12:000зюз101696100 0.6 10001080
15:000зюз91495100 0.9 1000926
18:00−1зюз71297100 0.9 1000638
21:00−1з4898100 2.6 1000419
5 марта, пт
пт500:00−2юв0598100 2.4 999222
03:00−2сз1398100 4.3 998141
06:00−4ссв5896100 1.5 998336
09:00−4ссз5795100 2.4 1001417
12:00−5ссз5891100 0.3 1004579
15:00−5с468898 0.3 1008587
18:00−11сз229244 0.0 101121
21:00−14сз009351 0.0 101321
6 марта, сб
сб600:00−13ю228658 0.0 101420
03:00−13ю238779 0.0 101321
06:00−13ююз338895 0.0 101323
09:00−9зюз469580 0.2 1012270
12:00−8зсз5792100 0.0 1012481
15:00−7зсз5787100 0.1 1012905
18:00−10зсз5109299 0.2 1013298
21:00−15зсз479597 0.3 101598
7 марта, вс
вс700:00−17з459420 0.0 101570
03:00−17зюз489523 0.0 1015122
06:00−16юз5129144 0.0 1014210
09:00−11юз8148554 0.0 1011505
12:00−7юз101784100 0.0 1007964
15:00−5юз111884100 0.1 10031229
18:00−5юз111893100 0.9 10001240
21:00−4юз101793100 1.9 9981030